Regional Weather Roundup
Issued by NWS

Home | Current Version | Previous Version | Text Only | Print | Product List | Glossary Off
Versions: 1 2 3 4 5 6 7 8 9 10 11 12 13 14 15 16 17 18 19 20 21 22 23 24 25 26 27 28 29 30 31 32 33 34 35 36 37 38 39 40 41 42 43 44 45 46 47 48 49 50

000
ASUS43 KLOT 290800
RWRIL

ILLINOIS REGIONAL WEATHER ROUNDUP
NATIONAL WEATHER SERVICE CHICAGO/ROMEOVILLE IL
300 AM CDT TUE JUL 29 2014

NOTE: "FAIR" INDICATES FEW OR NO CLOUDS BELOW 12,000 FEET WITH NO
SIGNIFICANT WEATHER AND/OR OBSTRUCTIONS TO VISIBILITY.

* THESE STATIONS ARE NOT UNDER NWS QUALITY CONTROL. THEY ALSO MAY NOT
  REPORT WEATHER SUCH AS PRECIPITATION OR FOG.

ILZ001-002-007-009-015-016-024-290900-
NORTHWEST ILLINOIS

CITY           SKY/WX    TMP DP  RH WIND       PRES   REMARKS
MOLINE         CLEAR     54  51  90 CALM      30.11S
STERLING*      CLEAR     55  52  88 W6        30.09S
$$

ILZ003-004-008-010-011-017-018-290900-
NORTH CENTRAL ILLINOIS

CITY           SKY/WX    TMP DP  RH WIND       PRES   REMARKS
ROCKFORD       MOCLDY    60  51  72 NW5       30.09S
FREEPORT*      PTCLDY    53  50  89 W5        30.10F
$$

ILZ005-006-012>014-019>023-290900-
NORTHEAST ILLINOIS

CITY           SKY/WX    TMP DP  RH WIND       PRES   REMARKS
CHICAGO-OHARE  CLEAR     62  51  67 NW6       30.03F
CHICAGO-MIDWAY CLEAR     62  53  72 CALM      30.03F
AURORA         CLEAR     55  51  86 NW5       30.06S
LANSING*       CLEAR     55  51  87 S3        30.04S
WAUKEGAN       CLEAR     55  52  89 CALM      30.03F
DUPAGE AIRPORT CLEAR     60  53  77 NW6       30.04S
WHEELING       PTCLDY    59  53  80 CALM      30.05S
NORTHERLY ISL    N/A     60  52  74 S3          N/A
$$

LMZ740>746-290900-
SOUTHERN LAKE MICHIGAN

STATION/POSITION SKY/WX   TEMP    WIND        PRES    VSBY  WAVE
                          AIR SEA DIR/SP/G                  HT/PER
                          (F)     (DEG/KT/KT) (MB)    (MI)  (FT/S)
SOUTHERN BUOY              60 60  240/  8/  8 1016.9F         2/ 6
WAUKEGAN HARBOR            60     240/  3/  3   N/A
HARRISON CRIB              63     170/  6/  8   N/A
BURNHAM HARBOR             61     160/  3/  4   N/A
CALUMET HARBOR             62     180/  2/  2 1015.9F
MICHIGAN CITY              61     130/  4/  5   N/A
MICHIGAN CITY 6N           64 67   CALM  /  2   N/A           3/ 6
ST. JOSEPH                 61 66  150/  4/  6   N/A           2/ 5
$$

ILZ025>027-034>036-040-047-049-050-058-095>099-290900-
WEST-CENTRAL ILLINOIS

CITY           SKY/WX    TMP DP  RH WIND       PRES   REMARKS
QUINCY         CLEAR     59  54  83 W3        30.13S
GALESBURG*     CLEAR     51  50  97 CALM      30.12S
MACOMB*        CLEAR     53  53  99 W3        30.14S
$$

ILZ028>032-037-038-041>044-048-051>054-059>061-290900-
CENTRAL ILLINOIS

CITY           SKY/WX    TMP DP  RH WIND       PRES   REMARKS
PONTIAC        MOCLDY    55  55 100 W3        30.07S
DECATUR        CLEAR     60  51  72 NW6       30.09F
PEORIA         CLEAR     59  51  75 W5        30.10F
SPRINGFIELD    CLEAR     54  52  93 W3        30.11F
TAYLORVILLE    NOT AVBL
$$

ILZ033-039-045-046-055>057-062-063-290900-
EAST-CENTRAL ILLINOIS

CITY           SKY/WX    TMP DP  RH WIND       PRES   REMARKS
CHAMPAIGN      CLEAR     54  51  90 W8        30.08S
MATTOON        CLEAR     56  51  84 W5        30.08S
$$

ILZ079-100>102-290900-
SOUTHWEST ILLINOIS

CITY           SKY/WX    TMP DP  RH WIND       PRES   REMARKS
BELLEVILLE     CLEAR     59  54  85 CALM      30.11S
CAHOKIA*       CLEAR     56  53  90 CALM      30.12S
SPARTA*        CLEAR     55  54  94 CALM      30.12F
$$

ILZ064>066-069>071-074>076-080>082-084>086-088>090-092>094-290900-
SOUTH-CENTRAL ILLINOIS

CITY           SKY/WX    TMP DP  RH WIND       PRES   REMARKS
CARBONDALE     CLEAR     56  53  90 CALM      30.11S
MT. VERNON     CLEAR     52  46  82 CALM      30.11S
SALEM*         CLEAR    N/A N/A N/A CALM      30.12S
$$

ILZ067-068-072-073-078-083-087-091-290900-
SOUTHEAST ILLINOIS

CITY           SKY/WX    TMP DP  RH WIND       PRES   REMARKS
LAWRENCEVILLE  CLEAR     54  51  90 NW8       30.08S
HARRISBURG*    CLEAR     54  54  97 CALM      30.10S
ROBINSON*      CLEAR     53  52  96 CALM      30.09S
$$

ABBREVIATIONS USED IN REMARKS
   TC - TEMPERATURE IN CELSIUS
  WCI - WIND CHILL INDEX
   HX - HEAT INDEX
  VSB - VISIBILITY
$$



USA.gov is the U.S. government's official web portal to all federal, state and local government web resources and services.